Hourly Data Report for October 13, 2013

All times are specified in Local Standard Time (LST). Add 1 hour to adjust for Daylight Saving Time where and when it is observed.

IQALUIT CLIMATE
NUNAVUT

63°44'50.000" N
68°32'40.000" W
33.50 m
2402592
71321
XFB

Download Data

Hourly Data (October 2013)
Hourly Data Report for October 13, 2013
Temp Definition
°C
Dew Point Temp Definition
°C
Rel Hum Definition
%
Wind Dir Definition
10's deg

Wind Spd Definition
km/h
Visibility Definition
km
Stn Press Definition
kPa
Hmdx Definition


Wind Chill Definition


Weather Definition


TIME
00:00 1.2 -0.1 91 13 6   101.60     LegendNANA
01:00 1.6 -0.7 85 13 22   101.52     LegendNANA
02:00 1.8 -0.5 85 13 19   101.51     LegendNANA
03:00 1.1 -0.3 90 13 11   101.50     LegendNANA
04:00 1.7 -0.4 86 14 17   101.47     LegendNANA
05:00 1.8 -0.2 87 13 17   101.40     LegendNANA
06:00 2.2 -0.6 82 15 19   101.39     LegendNANA
07:00 2.9 -0.5 78 14 17   101.34     LegendNANA
08:00 3.8 -0.7 72 13 30   101.29     LegendNANA
09:00 4.1 -0.8 70 13 11   101.30     LegendNANA
10:00 3.2 -0.6 76 14 28   101.22     LegendNANA
11:00 4.7 -1.2 66 13 39   101.13     LegendNANA
12:00 5.1 -1.4 63 12 28   101.13     LegendNANA
13:00 5.8 -1.9 58 13 26   101.12     LegendNANA
14:00 3.7 -0.6 73 15 20   101.10     LegendNANA
15:00 3.9 -1.0 70 14 22   101.04     LegendNANA
16:00 2.9 -0.8 77 14 13   101.03     LegendNANA
17:00 3.5 -1.2 71 12 22   100.96     LegendNANA
18:00 3.0 -1.2 74 14 30   100.93     LegendNANA
19:00 2.4 -0.7 80 14 22   100.88     LegendNANA
20:00 2.6 -0.5 80 14 17   100.86     LegendNANA
21:00 2.4 -0.4 82 14 15   100.80     LegendNANA
22:00 2.9 -0.3 79 13 13   100.76     LegendNANA
23:00 2.8 -0.2 81 15 15   100.69     LegendNANA

Notes on Data Quality.

Legend

  • E = Estimated
  • M = Missing
  • NA = Not Available
  • ‡ = Partner data that is not subject to review by the National Climate Archives
Date modified: